Key West High School FL US WEATHERSTEM current weather conditions

sailwx.info

Wind from 090 at 9 knots gusting 21

Air temperature 23.3° C
Dewpoint 18.6° C

Last reported at 2020-Jan-18 10:00 UTC.
Time now 2020-Jan-18 11:10 UTC

Location: N 24°33' W 081°47'.
View on Google Maps.

See reports from other nearby stations

  
Tides and Currents Weather Stations Pressure Air Temp Water Temp Dewpoint Dewpoint Depression Visibility Wind Speed Wind Dir Waves Ship Positions
date/time (UTC)wind fromknots sea level pressurealtimeterstation pressurevisibilityair tempwater tempwave heightnotes
2020-Jan-18 10:00 090 9 gusting 21 23.3
2020-Jan-18 09:40 068 4 gusting 22 23.4
2020-Jan-18 09:30 110 12 gusting 19 23.3
2020-Jan-18 09:20 075 19 gusting 19 23.3
2020-Jan-18 09:10 161 6 gusting 22 23.4
2020-Jan-18 09:00 118 15 gusting 19 23.4
2020-Jan-18 08:50 070 12 gusting 19 23.4
2020-Jan-18 08:40 162 7 gusting 21 23.4
2020-Jan-18 08:10 086 15 gusting 19 23.5
2020-Jan-18 08:00 098 13 gusting 19 23.4
2020-Jan-18 07:50 063 6 gusting 22 23.5
2020-Jan-18 07:30 125 17 gusting 25 23.4
2020-Jan-18 07:20 117 21 gusting 25 23.2
2020-Jan-18 07:10 111 4 gusting 23 23.2
2020-Jan-18 07:00 058 12 gusting 19 23.2
2020-Jan-18 06:50 061 8 gusting 17 23.3
2020-Jan-18 06:30 100 7 gusting 21 23.3
2020-Jan-18 06:20 086 11 gusting 25 23.3
2020-Jan-18 06:00 073 7 gusting 19 23.1
2020-Jan-18 05:50 032 6 gusting 15 22.8
2020-Jan-18 05:30 069 2 gusting 19 22.6
2020-Jan-18 05:20 080 8 gusting 17 22.3
2020-Jan-18 05:10 076 6 gusting 19 22.3
2020-Jan-18 05:00 094 6 gusting 20 22.4
2020-Jan-18 04:50 076 12 gusting 22 22.3
2020-Jan-18 04:30 089 11 gusting 18 22.1
2020-Jan-18 04:20 055 15 gusting 21 22.1
2020-Jan-18 04:10 068 9 gusting 20 22.0
2020-Jan-18 04:00 063 7 gusting 20 22.1
2020-Jan-18 03:50 062 10 gusting 19 22.0
2020-Jan-18 03:30 070 13 gusting 19 22.1
2020-Jan-18 03:20 049 4 gusting 19 22.1
2020-Jan-18 03:10 049 13 gusting 19 21.9
2020-Jan-18 03:00 070 10 gusting 18 21.9
2020-Jan-18 02:50 063 13 gusting 22 22.1
2020-Jan-18 02:30 079 13 gusting 22 22.4
2020-Jan-18 02:20 065 6 gusting 20 22.5
2020-Jan-18 02:10 039 6 gusting 18 22.7
2020-Jan-18 02:00 084 11 gusting 18 23.0
2020-Jan-18 01:50 050 5 gusting 19 23.0
2020-Jan-18 01:40 082 12 gusting 16 23.0
2020-Jan-18 01:30 089 7 gusting 10 23.0
2020-Jan-18 01:20 145 3 gusting 12 22.9
2020-Jan-18 01:10 061 4 gusting 16 23.2
2020-Jan-18 01:00 100 9 gusting 16 23.2
2020-Jan-18 00:50 064 5 gusting 7 23.2
2020-Jan-18 00:40 065 4 gusting 10 23.2
2020-Jan-18 00:20 049 2 gusting 9 23.4
2020-Jan-18 00:10 056 3 gusting 9 23.6
2020-Jan-18 00:00 052 6 gusting 9 23.6
2020-Jan-17 23:50 081 5 gusting 10 23.6
2020-Jan-17 23:40 074 4 gusting 8 23.4
2020-Jan-17 23:20 049 3 gusting 6 23.2
2020-Jan-17 23:10 077 6 gusting 10 23.2
2020-Jan-17 23:00 063 4 gusting 10 23.3
2020-Jan-17 22:50 068 2 gusting 10 23.4
2020-Jan-17 22:40 047 3 gusting 10 23.7
2020-Jan-17 22:20 042 6 gusting 13 24.0
2020-Jan-17 22:10 066 8 gusting 12 24.0
2020-Jan-17 22:00 066 7 gusting 11 24.2
2020-Jan-17 21:40 047 6 gusting 15 24.5
2020-Jan-17 21:30 023 8 gusting 9 24.8
2020-Jan-17 21:20 048 6 gusting 11 25.2
2020-Jan-17 21:10 046 5 gusting 14 25.9
2020-Jan-17 21:00 097 9 gusting 13 25.9
2020-Jan-17 20:40 103 7 gusting 12 25.6
2020-Jan-17 20:30 060 4 gusting 11 25.6
2020-Jan-17 20:20 076 6 gusting 13 25.8
2020-Jan-17 20:10 070 5 gusting 15 26.0
2020-Jan-17 20:00 105 11 gusting 14 26.0
2020-Jan-17 19:50 096 6 gusting 13 25.9
2020-Jan-17 19:40 089 10 gusting 15 26.1
2020-Jan-17 19:30 060 9 gusting 13 25.9
2020-Jan-17 19:20 061 4 gusting 13 25.8
2020-Jan-17 19:10 013 1 gusting 15 25.8
2020-Jan-17 19:00 076 2 gusting 11 25.6
2020-Jan-17 18:50 038 3 gusting 10 25.1
2020-Jan-17 18:30 076 8 gusting 12 24.8
2020-Jan-17 18:20 049 9 gusting 10 24.9
2020-Jan-17 18:10 051 6 gusting 10 24.7
2020-Jan-17 18:00 039 5 gusting 10 24.5
2020-Jan-17 17:50 035 6 gusting 13 24.4
2020-Jan-17 17:40 077 7 gusting 12 24.3
2020-Jan-17 17:20 041 5 gusting 13 24.4
2020-Jan-17 17:10 051 6 gusting 12 24.4
2020-Jan-17 17:00 026 6 gusting 15 24.4
2020-Jan-17 16:50 072 5 gusting 11 24.7
2020-Jan-17 16:40 084 6 gusting 13 24.6
2020-Jan-17 16:20 049 6 gusting 12 25.5
2020-Jan-17 16:10 068 3 gusting 12 25.8
2020-Jan-17 16:00 079 5 gusting 13 25.4
2020-Jan-17 15:50 077 11 gusting 13 25.4
2020-Jan-17 15:40 068 1 gusting 11 25.3
2020-Jan-17 15:30 079 5 gusting 12 25.1
2020-Jan-17 15:10 066 6 gusting 10 24.9
2020-Jan-17 15:00 119 9 gusting 13 24.7
2020-Jan-17 14:50 062 5 gusting 11 24.6
2020-Jan-17 14:40 060 9 gusting 11 24.4
2020-Jan-17 14:30 042 7 gusting 12 24.3
2020-Jan-17 14:20 054 4 gusting 11 24.2
2020-Jan-17 14:10 094 9 gusting 11 24.1
2020-Jan-17 13:50 053 3 gusting 8 23.7
2020-Jan-17 13:40 069 6 gusting 9 23.6
2020-Jan-17 13:30 038 7 gusting 9 23.3
2020-Jan-17 13:10 060 2 gusting 6 22.8
2020-Jan-17 13:00 039 2 gusting 7 22.6
2020-Jan-17 12:50 086 1 gusting 6 22.4
2020-Jan-17 12:40 053 2 gusting 6 22.3
2020-Jan-17 12:30 082 2 gusting 6 22.3
2020-Jan-17 12:20 062 2 gusting 6 22.2
2020-Jan-17 12:10 041 2 gusting 8 22.2
2020-Jan-17 12:00 050 2 gusting 6 22.2
2020-Jan-17 11:50 051 3 gusting 6 22.2
2020-Jan-17 11:30 051 1 gusting 7 22.2
2020-Jan-17 11:20 056 3 gusting 6 22.2
2020-Jan-17 11:10 062 6 gusting 7 22.2
2020-Jan-17 11:00 084 4 gusting 6 22.2
2020-Jan-17 10:50 055 1 gusting 7 22.2
2020-Jan-17 10:30 052 5 gusting 6 22.1
2020-Jan-17 10:10 068 3 gusting 6 22.1
2020-Jan-17 10:00 043 3 gusting 6 22.1
2020-Jan-17 09:50 070 3 gusting 6 22.1
2020-Jan-17 09:40 072 2 gusting 6 22.2
2020-Jan-17 09:30 035 4 gusting 6 22.2
2020-Jan-17 09:20 070 2 gusting 6 22.2
2020-Jan-17 09:00 059 4 gusting 6 22.3
2020-Jan-17 08:50 058 2 gusting 6 22.2
2020-Jan-17 08:40 031 3 gusting 6 22.2
2020-Jan-17 08:30 035 3 gusting 5 22.2
2020-Jan-17 08:20 041 2 gusting 6 22.2
2020-Jan-17 08:10 039 3 gusting 6 22.3
2020-Jan-17 08:00 053 2 gusting 6 22.3
2020-Jan-17 07:50 065 2 gusting 6 22.3
2020-Jan-17 07:40 052 2 gusting 6 22.4
2020-Jan-17 07:20 069 2 gusting 6 22.6
2020-Jan-17 07:10 055 2 gusting 6 22.7
2020-Jan-17 07:00 082 3 gusting 6 22.7
2020-Jan-17 06:50 063 5 gusting 8 22.7
2020-Jan-17 06:40 043 3 gusting 7 22.7
2020-Jan-17 06:30 046 4 gusting 8 22.7
2020-Jan-17 06:20 052 3 gusting 8 22.7
2020-Jan-17 06:10 047 3 gusting 6 22.7
2020-Jan-17 06:00 077 4 gusting 8 22.6
2020-Jan-17 05:50 070 5 gusting 7 22.4
2020-Jan-17 05:40 068 3 gusting 9 22.3
2020-Jan-17 05:30 044 1 gusting 6 22.5
2020-Jan-17 05:20 046 4 gusting 6 22.5
2020-Jan-17 05:10 056 2 gusting 6 22.6
2020-Jan-17 04:40 053 2 gusting 7 22.8
2020-Jan-17 04:30 056 6 gusting 6 22.8
2020-Jan-17 04:20 080 2 gusting 6 22.7
2020-Jan-17 04:00 084 2 gusting 5 22.8
2020-Jan-17 03:40 062 1 gusting 6 22.8
2020-Jan-17 03:30 085 2 gusting 6 22.8
2020-Jan-17 03:20 084 4 gusting 6 22.8
2020-Jan-17 03:10 067 1 gusting 5 22.9
2020-Jan-17 03:00 077 1 gusting 4 22.9
2020-Jan-17 02:50 067 3 gusting 6 22.9
2020-Jan-17 02:40 069 4 gusting 6 22.9
2020-Jan-17 02:30 091 2 gusting 6 23.0
2020-Jan-17 02:10 072 4 gusting 6 23.1
2020-Jan-17 02:00 080 3 gusting 5 23.2
2020-Jan-17 01:50 053 2 gusting 7 23.2
2020-Jan-17 01:40 065 4 gusting 6 23.2
2020-Jan-17 01:30 034 1 gusting 7 23.3
2020-Jan-17 01:10 045 2 gusting 8 23.4
2020-Jan-17 01:00 072 2 gusting 6 23.5
2020-Jan-17 00:50 083 2 gusting 8 23.5
2020-Jan-17 00:20 057 3 gusting 7 23.4
2020-Jan-17 00:00 062 0 gusting 5 23.7
2020-Jan-16 23:50 070 4 gusting 6 23.8
2020-Jan-16 23:30 060 0 gusting 6 24.0
2020-Jan-16 23:20 24.0
2020-Jan-16 23:10 125 5 gusting 6 24.1
2020-Jan-16 22:50 098 0 gusting 9 24.3
2020-Jan-16 22:40 098 4 gusting 8 24.4
2020-Jan-16 22:30 096 5 gusting 8 24.6
2020-Jan-16 22:20 139 3 gusting 10 24.6
2020-Jan-16 22:10 110 6 gusting 10 24.8
2020-Jan-16 22:00 074 6 gusting 11 24.9
2020-Jan-16 21:50 101 9 gusting 12 25.0
2020-Jan-16 21:40 139 7 gusting 12 25.1
2020-Jan-16 21:30 132 5 gusting 11 25.2
2020-Jan-16 21:20 096 8 gusting 13 25.3
2020-Jan-16 21:10 120 7 gusting 12 25.6
2020-Jan-16 21:00 116 8 gusting 12 25.7
2020-Jan-16 20:40 101 8 gusting 12 25.7
2020-Jan-16 20:30 108 7 gusting 12 25.8
2020-Jan-16 20:20 114 11 gusting 12 25.7
2020-Jan-16 20:10 108 4 gusting 11 25.9
2020-Jan-16 20:00 110 9 gusting 9 25.9
2020-Jan-16 19:50 070 6 gusting 11 25.9
2020-Jan-16 19:40 105 5 gusting 11 25.8
2020-Jan-16 19:30 091 6 gusting 11 25.9
2020-Jan-16 19:10 108 6 gusting 12 26.1
2020-Jan-16 19:00 108 6 gusting 11 26.3
2020-Jan-16 18:50 127 7 gusting 10 26.3
2020-Jan-16 18:40 101 6 gusting 11 26.3
2020-Jan-16 18:30 137 7 gusting 10 26.2
2020-Jan-16 18:20 104 4 gusting 9 26.1
2020-Jan-16 18:00 105 1 gusting 10 25.9
2020-Jan-16 17:50 075 6 gusting 10 25.8
2020-Jan-16 17:40 108 3 gusting 10 25.9
2020-Jan-16 17:20 056 3 gusting 11 25.4
2020-Jan-16 17:10 084 6 gusting 12 25.4
2020-Jan-16 17:00 056 5 gusting 13 25.3
2020-Jan-16 16:50 041 5 gusting 13 25.1
2020-Jan-16 16:40 062 6 gusting 11 25.2
2020-Jan-16 16:30 072 6 gusting 13 24.9
2020-Jan-16 16:20 015 6 gusting 12 25.0
2020-Jan-16 16:10 037 11 gusting 13 24.8
2020-Jan-16 15:50 047 1 gusting 11 25.2
2020-Jan-16 15:40 065 10 gusting 11 25.1
2020-Jan-16 15:30 039 2 gusting 10 25.2
2020-Jan-16 15:20 056 6 gusting 12 25.2
2020-Jan-16 15:10 082 7 gusting 10 25.1
2020-Jan-16 15:00 094 3 gusting 9 25.1
2020-Jan-16 14:50 072 1 gusting 8 24.9
2020-Jan-16 14:40 054 6 gusting 11 24.8
2020-Jan-16 14:30 087 2 gusting 7 24.6
2020-Jan-16 14:10 078 2 gusting 8 24.2
2020-Jan-16 14:00 043 2 gusting 6 24.1
2020-Jan-16 13:50 079 4 gusting 8 23.9
2020-Jan-16 13:40 072 6 gusting 8 23.9
2020-Jan-16 13:30 080 1 gusting 6 23.7
2020-Jan-16 13:20 075 5 gusting 7 23.3
2020-Jan-16 13:10 069 5 gusting 7 23.2
2020-Jan-16 13:00 078 5 gusting 7 23.1
2020-Jan-16 12:50 062 4 gusting 6 22.7
2020-Jan-16 12:40 077 4 gusting 6 22.5
2020-Jan-16 12:30 079 3 gusting 5 22.4
2020-Jan-16 12:20 099 1 gusting 6 22.4
2020-Jan-16 12:10 107 1 gusting 6 22.4
2020-Jan-16 12:00 054 3 gusting 6 22.4
2020-Jan-16 11:50 075 3 gusting 7 22.3
2020-Jan-16 11:40 059 1 gusting 6 22.4
2020-Jan-16 11:30 036 2 gusting 5 22.5
2020-Jan-16 11:20 049 2 gusting 6 22.6
2020-Jan-16 11:10 067 3 gusting 6 22.7
2020-Jan-16 11:00 092 5 gusting 7 22.8